map of HHQ home
HHQ - Airport
Location
City:  Hua Hin, Phetchaburi, Thailand
ICAO:VTPH
IATA:HHQ

Details
Type:Airport (Aerodrome, Airfield)
Use:Public/Civil
Latitude:12°38'10"N (12.636225)
Longitude:99°57'06"E (99.951533)
Datum:WGS 1984
Elevation:62 ft (19 m)
Variation:0.53°W (WMM2015 magnetic declination)
0.01° annual change
Runways:1
Longest:6890 × 115 ft (2100 × 35 m), paved

Time
Time Zone:UTC+7
Local Time:

Weather
METAR:VTPH 070800Z 02010KT 7000 FEW030 29/20 Q1010
TAF:VTPH 062300Z 0700/0724 33005KT 7000 FEW028
TEMPO 0700/0704 6000 -RA BKN025
BECMG 0704/0706 02010KT 9999
BECMG 0710/0712 33005KT 8000
BECMG 0720/0722 00000KT 6000

Related Locations
Nearby:
Farthest:LIM: 12246 mi / 19708 km
Lima (Callao) [Jorge Chávez Intl], CAL, PE

Find:

   beyond  
but within

Other Information
Maps:
NOTAMs:
Links:
Sources:

  
flag of Thailand   

Sectional Chart

Flight Planning
at skyvector.com

Satellite Image

Google Maps Satellite view

 

Copyright © 2004-2016 Karl L. Swartz. All rights reserved.
The Great Circle Mapper name and logo are trademarks of the Great Circle Mapper.
All other trademarks mentioned herein belong to their respective owners.
Please see credits for attibutions and further copyright information.

  Follow gcmap on Facebook Follow gcmap on Twitter Follow gcmap on Google+ GCmap on LinkedIn

hCard Microformat

Geo Microformat